sat.trackr.live / text

‹ back to catalog

STARLINK-36396

NORAD 67494 · 2026-012B

PAYLOAD ACTIVE UNKNOWN

§ Identity

Operator
Country
US
Launch date
2026-01-18
Launch site
AFETR
Launch vehicle
Mass (kg)
RCS (m²)

Purposes: comms

External: N2YO · Heavens-Above · Gunter

§ Orbital elements

Epoch: 2026-05-24T14:58:20.333280Z

Period
94.27 min
Inclination
43.0006°
Eccentricity
0.0001463
Mean motion
15.27585939 rev/d
Perigee alt
482.0 km
Apogee alt
484.0 km
Semi-major
6,861.2 km
B*
4.3582e-4
RAAN
245.7112°
Arg perigee
274.1389°
Mean anomaly
85.9296°
Rev number
1,937

§ Raw data

STARLINK-363961 67494U 26012B   26144.62384645  .00011752  00000+0  43582-3 0  99962 67494  43.0006 245.7112 0001463 274.1389  85.9296 15.27585939 19378

JSON: /api/v1/satellites/67494 · /tle

For live sub-satellite position, see the globe view (requires WebGL).

§ Visibility from observer

Set your observer location to see the next 7 days of passes ≥ 10°. The values pass through the URL so the page stays shareable.

No JS? Fill the form by hand. The geolocation button needs JavaScript.